[[{"header":{"parameterUnit":"m.s-1","parameterCategory":2,"la1":30.2992,"la2":30.254,"lo1":-89.0895,"lo2":-89.0443,"dy":0.0025,"dx":0.0025,"nx":19,"ny":19,"refTime":"2026-04-19T21:00:00:Z","depth":"0","parameterNumber":2,"parameterNumberName":"U-component_of_CURRENTS"},"data":[0,0,0,-0.3312,-0.3314,-0.3405,-0.3405,-0.3488,-0.3489,0,0,0,0,0,0,0,0,0,0,0,-0.3263,-0.3264,-0.3311,-0.3314,-0.3405,-0.3405,-0.3488,-0.3489,0,0,0,0,0,0,0,0,0,0,0,-0.3263,-0.3263,-0.3264,-0.3314,-0.3405,-0.3405,-0.3488,-0.3425,0,0,0,0,0,0,0,0,0,0,-0.3339,-0.3291,-0.3263,-0.3264,-0.3315,-0.3405,-0.3405,-0.3422,-0.3429,-0.344,0,-0.3452,0,-0.3484,-0.3494,-0.3495,0,0,0,-0.3304,-0.3286,-0.3328,-0.3264,-0.3316,-0.3405,-0.3361,-0.3426,-0.3433,-0.3449,-0.3453,-0.3457,-0.3486,-0.3495,-0.3495,-0.3592,-0.3592,0,0,-0.3299,-0.3265,-0.3322,-0.3332,-0.3337,-0.3358,-0.3364,-0.3431,-0.3426,-0.3454,-0.346,-0.3487,-0.3495,-0.3496,-0.3592,-0.3592,0,0,0,-0.3291,-0.3261,-0.3301,-0.3328,-0.3354,-0.3361,-0.3368,-0.3423,-0.3441,-0.3461,-0.3488,-0.3496,-0.3497,-0.3591,-0.3592,-0.3627,0,0,0,-0.3288,-0.3258,-0.3298,-0.3277,-0.3353,-0.3393,-0.3358,-0.3436,-0.3445,-0.3488,-0.3496,-0.3498,-0.3591,-0.3592,-0.3625,-0.3652,0,0,0,-0.326,-0.3255,-0.3268,-0.3275,-0.3324,-0.3393,-0.3414,-0.3438,-0.3462,-0.3495,-0.3498,-0.359,-0.3591,-0.3623,-0.3648,-0.369,0,0,0,-0.3218,-0.3245,-0.3267,-0.3312,-0.3323,-0.3416,-0.3414,-0.3467,-0.3496,-0.3496,-0.3591,-0.3592,-0.3623,-0.3646,-0.3688,-0.3715,-0.3728,0,0,-0.3236,-0.3245,-0.3279,-0.3302,-0.3391,-0.3402,-0.349,-0.3517,-0.3515,-0.3563,-0.3566,-0.3626,-0.3648,-0.369,-0.3773,-0.3784,0,0,0,-0.3276,-0.3292,-0.3325,-0.3379,-0.3448,-0.3511,-0.3543,-0.3561,-0.3596,-0.354,-0.3636,-0.365,-0.3675,-0.3687,-0.3696,-0.372,-0.3596,-0.3596,-0.3596,-0.3228,-0.3295,-0.3349,-0.3433,-0.3497,-0.3584,-0.3632,-0.3659,-0.3645,-0.3662,-0.3686,-0.3753,-0.3766,-0.3773,-0.3798,-0.3688,-0.3688,-0.3688,-0.3688,-0.3238,-0.3259,-0.3357,-0.3429,-0.3523,-0.3593,-0.3708,-0.3716,-0.3781,-0.3741,-0.3763,-0.3732,-0.3785,-0.3808,-0.3691,-0.3691,-0.369,-0.369,-0.369,-0.3179,-0.3195,-0.3257,-0.3358,-0.3465,-0.3583,-0.3698,-0.377,-0.3807,-0.3844,-0.3851,-0.3851,-0.3865,-0.3846,-0.3846,-0.3847,-0.3847,-0.3847,-0.3847,-0.3063,-0.3136,-0.3157,-0.3286,-0.3342,-0.3473,-0.3684,-0.3776,-0.3889,-0.3907,-0.3907,-0.39,-0.3801,-0.3789,-0.3852,-0.3851,-0.3851,-0.385,-0.385,-0.2941,-0.2981,-0.3009,-0.3057,-0.3207,-0.331,-0.3573,-0.3822,-0.3939,-0.3992,-0.4021,-0.3946,-0.3942,-0.3934,-0.3926,-0.4021,-0.4021,-0.4021,-0.4021,-0.2819,-0.2858,-0.2845,-0.2887,-0.3004,-0.3211,-0.3438,-0.3755,-0.4006,-0.4073,-0.4105,-0.4072,-0.4063,-0.4064,-0.4053,-0.4045,-0.4169,-0.4169,-0.4169,-0.2699,-0.2733,-0.2664,-0.2746,-0.2877,-0.3087,-0.3299,-0.3751,-0.4106,-0.4176,-0.4138,-0.4132,-0.4079,-0.4065,-0.4058,-0.4041,-0.4025,0,0]},{"header":{"parameterUnit":"m.s-1","parameterCategory":2,"la1":30.2992,"la2":30.254,"lo1":-89.0895,"lo2":-89.0443,"dy":0.0025,"dx":0.0025,"nx":19,"ny":19,"refTime":"2026-04-19T21:00:00:Z","depth":"0","parameterNumber":3,"parameterNumberName":"V-component_of_CURRENTS"},"data":[0,0,0,-0.0446,-0.0444,-0.0306,-0.0305,-0.0133,-0.0132,0,0,0,0,0,0,0,0,0,0,0,-0.0498,-0.0497,-0.0447,-0.0444,-0.0306,-0.0305,-0.0133,-0.0132,0,0,0,0,0,0,0,0,0,0,0,-0.0498,-0.0497,-0.0497,-0.0444,-0.0307,-0.0305,-0.0133,-0.0231,0,0,0,0,0,0,0,0,0,0,-0.0362,-0.0427,-0.0498,-0.0497,-0.0443,-0.0307,-0.0305,-0.0236,-0.0225,-0.0203,0,-0.0198,0,-0.0169,-0.0122,-0.0122,0,0,0,-0.0422,-0.0436,-0.0393,-0.0497,-0.0442,-0.0307,-0.0362,-0.023,-0.0218,-0.019,-0.0195,-0.0188,-0.0166,-0.0121,-0.0121,-0.006,-0.0061,0,0,-0.0429,-0.0472,-0.0401,-0.0386,-0.0426,-0.0367,-0.0358,-0.0222,-0.0223,-0.0195,-0.0184,-0.0163,-0.012,-0.0119,-0.006,-0.006,0,0,0,-0.0466,-0.0478,-0.0437,-0.0393,-0.0372,-0.0363,-0.0353,-0.0228,-0.0214,-0.0182,-0.0161,-0.012,-0.0118,-0.0059,-0.006,-0.017,0,0,0,-0.047,-0.05,-0.0441,-0.0464,-0.0376,-0.0301,-0.0363,-0.0223,-0.0206,-0.0162,-0.012,-0.0117,-0.0059,-0.006,-0.0166,-0.024,0,0,0,-0.05,-0.0503,-0.0492,-0.0467,-0.0416,-0.0302,-0.0278,-0.0218,-0.0195,-0.0122,-0.0116,-0.0059,-0.006,-0.0163,-0.0233,-0.0221,0,0,0,-0.0539,-0.0566,-0.0494,-0.0519,-0.0418,-0.0378,-0.0279,-0.0235,-0.0184,-0.0119,-0.0059,-0.006,-0.0162,-0.0228,-0.0218,-0.0214,-0.0229,0,0,-0.06,-0.0574,-0.059,-0.0523,-0.0531,-0.0394,-0.0385,-0.0273,-0.0187,-0.0099,-0.0097,-0.0167,-0.0232,-0.022,-0.0268,-0.0281,0,0,0,-0.0628,-0.0645,-0.0633,-0.0618,-0.0553,-0.0497,-0.0373,-0.0306,-0.0216,-0.0163,-0.0155,-0.0193,-0.0181,-0.0172,-0.0183,0.0209,-0.0064,-0.0064,-0.0064,-0.0761,-0.0727,-0.0766,-0.0719,-0.0685,-0.0561,-0.0502,-0.0386,-0.0288,-0.0266,-0.0273,-0.0332,-0.0324,-0.0332,0.0071,-0.0247,-0.0247,-0.0247,-0.0248,-0.0888,-0.0921,-0.0875,-0.0899,-0.0818,-0.0784,-0.0626,-0.0536,-0.0426,-0.0355,-0.0336,-0.0278,-0.0351,0.0084,-0.0255,-0.0253,-0.0253,-0.0252,-0.0251,-0.0987,-0.1004,-0.1004,-0.1039,-0.103,-0.0924,-0.0906,-0.0738,-0.0555,-0.0536,-0.0447,-0.0444,-0.0066,-0.0498,-0.0498,-0.0499,-0.0499,-0.0499,-0.0499,-0.1093,-0.1097,-0.1174,-0.1188,-0.1218,-0.1207,-0.1058,-0.0966,-0.0738,-0.058,-0.0578,-0.0036,-0.0407,-0.0401,-0.0504,-0.0503,-0.0502,-0.0502,-0.0502,-0.1226,-0.1218,-0.135,-0.1404,-0.1485,-0.1564,-0.1391,-0.1165,-0.0978,-0.0858,-0.0114,-0.0565,-0.0519,-0.0509,-0.0504,-0.0627,-0.0627,-0.0627,-0.0627,-0.1316,-0.1322,-0.152,-0.1651,-0.1751,-0.1741,-0.1759,-0.1401,-0.0605,-0.0139,0.0059,0.0172,0.0159,0.0255,0.0248,0.0274,0.0351,0.0353,0.0355,-0.1413,-0.1463,-0.1631,-0.1755,-0.1884,-0.1949,-0.1996,-0.1543,-0.0235,0.044,0.061,0.0568,0.0781,0.073,0.0916,0.0876,0.0928,0,0]}],[{"header":{"parameterUnit":"m.s-1","parameterCategory":2,"la1":30.2992,"la2":30.254,"lo1":-89.0895,"lo2":-89.0443,"dy":0.0025,"dx":0.0025,"nx":19,"ny":19,"refTime":"2026-04-19T21:00:00:Z","depth":"2","parameterNumber":2,"parameterNumberName":"U-component_of_CURRENTS"},"data":[0,0,0,-0.3276,-0.3278,-0.3371,-0.3371,-0.3454,-0.3455,0,0,0,0,0,0,0,0,0,0,0,-0.3227,-0.3228,-0.3275,-0.3278,-0.3371,-0.3371,-0.3454,-0.3455,0,0,0,0,0,0,0,0,0,0,0,-0.3227,-0.3228,-0.3228,-0.3278,-0.337,-0.3371,-0.3454,-0.339,0,0,0,0,0,0,0,0,0,0,-0.3304,-0.3256,-0.3227,-0.3228,-0.3279,-0.337,-0.3371,-0.3387,-0.3394,-0.3405,0,-0.3417,0,-0.345,-0.346,-0.3461,0,0,0,-0.3268,-0.325,-0.3292,-0.3228,-0.328,-0.337,-0.3326,-0.3391,-0.3399,-0.3414,-0.3419,-0.3423,-0.3451,-0.3461,-0.3461,-0.3557,-0.3558,0,0,-0.3263,-0.3229,-0.3287,-0.3297,-0.3301,-0.3323,-0.3329,-0.3396,-0.3392,-0.3419,-0.3425,-0.3452,-0.3461,-0.3462,-0.3557,-0.3558,0,0,0,-0.3255,-0.3225,-0.3266,-0.3292,-0.3319,-0.3326,-0.3333,-0.3388,-0.3407,-0.3426,-0.3453,-0.3462,-0.3463,-0.3557,-0.3557,-0.3593,0,0,0,-0.3252,-0.3222,-0.3263,-0.3242,-0.3318,-0.3358,-0.3323,-0.3401,-0.3411,-0.3453,-0.3462,-0.3464,-0.3556,-0.3557,-0.3591,-0.3617,0,0,0,-0.3223,-0.3219,-0.3233,-0.324,-0.3289,-0.3358,-0.3379,-0.3404,-0.3428,-0.3461,-0.3464,-0.3556,-0.3557,-0.3589,-0.3613,-0.3655,0,0,0,-0.3182,-0.3209,-0.3231,-0.3276,-0.3288,-0.338,-0.3379,-0.3433,-0.3462,-0.3462,-0.3556,-0.3557,-0.3588,-0.3611,-0.3652,-0.3642,-0.3651,0,0,-0.32,-0.321,-0.3243,-0.3267,-0.3354,-0.3367,-0.3455,-0.3482,-0.348,-0.3529,-0.3531,-0.3591,-0.3613,-0.3654,-0.3699,-0.3707,0,0,0,-0.324,-0.3256,-0.3288,-0.3342,-0.341,-0.3474,-0.3507,-0.3525,-0.3562,-0.3506,-0.3602,-0.3615,-0.3639,-0.3628,-0.3635,-0.3562,-0.3562,-0.3562,-0.3562,-0.3193,-0.3259,-0.3312,-0.3396,-0.3458,-0.3547,-0.3594,-0.3623,-0.361,-0.3627,-0.3651,-0.3718,-0.3706,-0.3711,-0.3653,-0.3654,-0.3654,-0.3654,-0.3654,-0.3202,-0.3223,-0.332,-0.3391,-0.3484,-0.3555,-0.367,-0.3679,-0.3745,-0.3706,-0.3728,-0.3675,-0.372,-0.3657,-0.3656,-0.3656,-0.3656,-0.3655,-0.3655,-0.3143,-0.316,-0.3221,-0.3322,-0.3429,-0.3546,-0.366,-0.3733,-0.377,-0.3807,-0.379,-0.3788,-0.3743,-0.381,-0.381,-0.3811,-0.3811,-0.3811,-0.3811,-0.3029,-0.3101,-0.3123,-0.325,-0.3306,-0.3436,-0.3647,-0.3738,-0.3834,-0.3842,-0.3841,-0.3771,-0.3765,-0.3753,-0.3816,-0.3815,-0.3815,-0.3814,-0.3814,-0.2909,-0.2949,-0.2977,-0.3024,-0.3171,-0.3226,-0.3521,-0.3752,-0.3875,-0.3916,-0.3866,-0.3863,-0.3855,-0.3849,-0.3839,-0.3921,-0.3921,-0.3921,-0.3921,-0.2789,-0.2827,-0.2814,-0.2854,-0.2968,-0.3111,-0.3212,-0.3331,-0.3553,-0.3536,-0.355,-0.3471,-0.3479,-0.3443,-0.3446,-0.3424,-0.3397,-0.3395,-0.3394,-0.267,-0.2704,-0.2635,-0.2714,-0.2841,-0.2939,-0.2886,-0.2779,-0.2965,-0.3356,-0.3277,-0.3921,-0.3846,-0.3841,-0.3819,-0.381,-0.3789,0,0]},{"header":{"parameterUnit":"m.s-1","parameterCategory":2,"la1":30.2992,"la2":30.254,"lo1":-89.0895,"lo2":-89.0443,"dy":0.0025,"dx":0.0025,"nx":19,"ny":19,"refTime":"2026-04-19T21:00:00:Z","depth":"2","parameterNumber":3,"parameterNumberName":"V-component_of_CURRENTS"},"data":[0,0,0,-0.0398,-0.0396,-0.026,-0.0259,-0.0088,-0.0086,0,0,0,0,0,0,0,0,0,0,0,-0.0448,-0.0448,-0.0398,-0.0395,-0.026,-0.0259,-0.0088,-0.0086,0,0,0,0,0,0,0,0,0,0,0,-0.0448,-0.0448,-0.0448,-0.0395,-0.026,-0.0259,-0.0088,-0.0185,0,0,0,0,0,0,0,0,0,0,-0.0314,-0.0378,-0.0448,-0.0448,-0.0394,-0.026,-0.0259,-0.0189,-0.0179,-0.0156,0,-0.0151,0,-0.0123,-0.0077,-0.0076,0,0,0,-0.0373,-0.0387,-0.0344,-0.0447,-0.0393,-0.0261,-0.0315,-0.0183,-0.0171,-0.0143,-0.0149,-0.0142,-0.012,-0.0076,-0.0075,-0.0015,-0.0015,0,0,-0.0381,-0.0423,-0.0352,-0.0338,-0.0379,-0.0319,-0.0311,-0.0176,-0.0176,-0.0148,-0.0138,-0.0117,-0.0075,-0.0074,-0.0014,-0.0015,0,0,0,-0.0417,-0.0429,-0.0388,-0.0345,-0.0324,-0.0316,-0.0306,-0.0182,-0.0168,-0.0136,-0.0115,-0.0074,-0.0073,-0.0014,-0.0014,-0.0125,0,0,0,-0.0421,-0.0451,-0.0392,-0.0415,-0.0328,-0.0254,-0.0316,-0.0177,-0.016,-0.0116,-0.0074,-0.0071,-0.0013,-0.0014,-0.0121,-0.0195,0,0,0,-0.0451,-0.0454,-0.0443,-0.0418,-0.0368,-0.0256,-0.0232,-0.0172,-0.0149,-0.0076,-0.0071,-0.0013,-0.0014,-0.0117,-0.0187,-0.0176,0,0,0,-0.0489,-0.0516,-0.0445,-0.047,-0.037,-0.0331,-0.0232,-0.0189,-0.0139,-0.0074,-0.0013,-0.0014,-0.0116,-0.0183,-0.0172,-0.0167,-0.0182,0,0,-0.055,-0.0524,-0.054,-0.0474,-0.0482,-0.0347,-0.0337,-0.0226,-0.0141,-0.0053,-0.0051,-0.0122,-0.0187,-0.0175,-0.0221,-0.0234,0,0,0,-0.0578,-0.0595,-0.0583,-0.0568,-0.0504,-0.0449,-0.0326,-0.026,-0.017,-0.0117,-0.011,-0.0147,-0.0136,-0.0125,-0.0136,-0.0019,-0.0019,-0.0019,-0.0018,-0.0711,-0.0677,-0.0716,-0.0668,-0.0635,-0.0512,-0.0454,-0.0339,-0.0242,-0.022,-0.0227,-0.0286,-0.0278,-0.0286,-0.0201,-0.0201,-0.0202,-0.0202,-0.0202,-0.0837,-0.0869,-0.0824,-0.0848,-0.0768,-0.0734,-0.0577,-0.0488,-0.038,-0.0309,-0.029,-0.0232,-0.0304,-0.0211,-0.0209,-0.0208,-0.0207,-0.0206,-0.0206,-0.0936,-0.0952,-0.0953,-0.0988,-0.0979,-0.0873,-0.0856,-0.069,-0.0509,-0.049,-0.0401,-0.0398,-0.0344,-0.0453,-0.0453,-0.0453,-0.0454,-0.0454,-0.0454,-0.1042,-0.1045,-0.1122,-0.1136,-0.1167,-0.1156,-0.1008,-0.0917,-0.069,-0.0534,-0.0531,-0.037,-0.0362,-0.0356,-0.0459,-0.0458,-0.0457,-0.0457,-0.0456,-0.1174,-0.1166,-0.1298,-0.1352,-0.1432,-0.1481,-0.1332,-0.1109,-0.093,-0.0811,-0.0522,-0.0518,-0.0472,-0.0461,-0.0457,-0.0579,-0.0579,-0.0579,-0.0579,-0.1264,-0.127,-0.1467,-0.1597,-0.1697,-0.1647,-0.1624,-0.1274,-0.0855,-0.0603,-0.0602,-0.0558,-0.0553,-0.0506,-0.0495,-0.0488,-0.062,-0.062,-0.062,-0.1361,-0.1411,-0.1578,-0.1701,-0.1829,-0.1825,-0.1777,-0.1344,-0.0742,-0.0621,-0.0608,-0.0582,-0.0512,-0.0506,-0.0424,-0.041,-0.0395,0,0]}],[{"header":{"parameterUnit":"m.s-1","parameterCategory":2,"la1":30.2992,"la2":30.254,"lo1":-89.0895,"lo2":-89.0443,"dy":0.0025,"dx":0.0025,"nx":19,"ny":19,"refTime":"2026-04-19T21:00:00:Z","depth":"4","parameterNumber":2,"parameterNumberName":"U-component_of_CURRENTS"},"data":[0,0,0,-0.2132,-0.2136,-0.2368,-0.2369,-0.2573,-0.2574,0,0,0,0,0,0,0,0,0,0,0,-0.2058,-0.2059,-0.2131,-0.2137,-0.2368,-0.2369,-0.2572,-0.2574,0,0,0,0,0,0,0,0,0,0,0,-0.2057,-0.2059,-0.2061,-0.2138,-0.2368,-0.2369,-0.2572,-0.2423,0,0,0,0,0,0,0,0,0,0,-0.2212,-0.2152,-0.2058,-0.2061,-0.2139,-0.2367,-0.2369,-0.2417,-0.2433,-0.2437,0,-0.2478,0,-0.2521,-0.2584,-0.2585,0,0,0,-0.215,-0.214,-0.2199,-0.2061,-0.2141,-0.2367,-0.2267,-0.2427,-0.2444,-0.2457,-0.2481,-0.249,-0.2525,-0.2585,-0.2586,-0.2748,-0.2749,0,0,-0.2137,-0.2103,-0.2187,-0.2209,-0.2205,-0.226,-0.2274,-0.2438,-0.2457,-0.2482,-0.2495,-0.2528,-0.2586,-0.2588,-0.2748,-0.2749,0,0,0,-0.2091,-0.2094,-0.2151,-0.22,-0.2245,-0.2266,-0.2283,-0.2451,-0.2469,-0.2497,-0.253,-0.2587,-0.2589,-0.2747,-0.2748,-0.2789,0,0,0,-0.2084,-0.2067,-0.2145,-0.2128,-0.2242,-0.2363,-0.2291,-0.2459,-0.2479,-0.2529,-0.2587,-0.2591,-0.2747,-0.2748,-0.2786,-0.2803,0,0,0,-0.2046,-0.2063,-0.209,-0.2125,-0.2219,-0.2362,-0.2392,-0.2465,-0.2497,-0.2585,-0.2591,-0.2746,-0.2747,-0.2784,-0.2799,-0.2835,0,0,0,-0.2002,-0.2044,-0.209,-0.2159,-0.2217,-0.236,-0.2392,-0.2512,-0.259,-0.2588,-0.2747,-0.2748,-0.2783,-0.2797,-0.2832,-0.2506,0,0,0,-0.2023,-0.2046,-0.2088,-0.2134,-0.2254,-0.2329,-0.247,-0.2581,-0.2609,-0.2686,-0.2692,-0.2787,-0.2799,-0.2834,-0.2596,0,0,0,0,-0.2073,-0.2102,-0.2149,-0.2236,-0.2343,-0.2465,-0.2575,-0.2624,-0.273,-0.2661,-0.2806,-0.2812,-0.2833,-0.2636,-0.2755,-0.2755,-0.2755,-0.2755,-0.2755,-0.2038,-0.2113,-0.2194,-0.2305,-0.2407,-0.2571,-0.2666,-0.2752,-0.2773,-0.2823,-0.2859,-0.2933,-0.2728,-0.2876,-0.2876,-0.2876,-0.2876,-0.2876,-0.2877,-0.2047,-0.2077,-0.2216,-0.2322,-0.2467,-0.2598,-0.2767,-0.2816,-0.2932,-0.2919,-0.2937,-0.271,-0.2881,-0.288,-0.2879,-0.2879,-0.2879,-0.2878,-0.2878,-0.1977,-0.2,-0.2108,-0.2269,-0.2441,-0.2618,-0.2748,-0.2882,-0.2962,-0.3009,-0.2802,-0.2968,-0.2948,-0.3025,-0.3025,-0.3025,-0.3025,-0.3026,-0.3026,-0.1835,-0.1945,-0.2021,-0.2212,-0.2319,-0.2492,-0.2747,-0.2823,-0.295,-0.2819,-0.3029,-0.2983,-0.2978,-0.2957,-0.303,-0.3029,-0.3028,-0.3028,-0.3028,-0.1692,-0.1774,-0.1856,-0.196,-0.2186,-0.2289,-0.2582,-0.2669,-0.2723,-0.2678,-0.2711,-0.2725,-0.2681,-0.2684,-0.265,-0.2634,-0.263,-0.2626,0,-0.1572,-0.1624,-0.1711,-0.1808,-0.1918,-0.2149,-0.2177,-0.2327,-0.2441,-0.2344,-0.27,-0.2731,-0.274,-0.2686,-0.2683,-0.2639,0,0,0,-0.147,-0.1519,-0.1521,-0.1658,-0.1772,-0.1925,-0.2165,-0.2132,-0.2427,-0.2409,-0.2527,-0.2553,-0.2872,-0.3041,-0.3008,-0.3002,-0.2967,0,0]},{"header":{"parameterUnit":"m.s-1","parameterCategory":2,"la1":30.2992,"la2":30.254,"lo1":-89.0895,"lo2":-89.0443,"dy":0.0025,"dx":0.0025,"nx":19,"ny":19,"refTime":"2026-04-19T21:00:00:Z","depth":"4","parameterNumber":3,"parameterNumberName":"V-component_of_CURRENTS"},"data":[0,0,0,-0.0026,-0.0025,0.0037,0.0038,0.0137,0.0137,0,0,0,0,0,0,0,0,0,0,0,-0.0048,-0.0048,-0.0026,-0.0025,0.0037,0.0038,0.0137,0.0138,0,0,0,0,0,0,0,0,0,0,0,-0.0048,-0.0048,-0.0048,-0.0025,0.0037,0.0038,0.0136,0.0088,0,0,0,0,0,0,0,0,0,0,0.0027,-0.0007,-0.0048,-0.0048,-0.0025,0.0037,0.0038,0.0086,0.0091,0.0109,0,0.0108,0,0.0118,0.0143,0.0143,0,0,0,-0.0009,-0.0011,0.0008,-0.0048,-0.0024,0.0037,0.0014,0.0089,0.0095,0.0116,0.0109,0.0113,0.012,0.0144,0.0144,0.0166,0.0166,0,0,-0.0013,-0.0033,0.0003,0.0011,-0.0022,0.0011,0.0015,0.0093,0.0092,0.0109,0.0115,0.0122,0.0144,0.0145,0.0166,0.0166,0,0,0,-0.0033,-0.0036,-0.0019,0.0007,0.0013,0.0013,0.0017,0.0089,0.0095,0.0116,0.0123,0.0145,0.0146,0.0167,0.0166,0.0069,0,0,0,-0.0034,-0.0049,-0.0021,-0.0032,0.0011,0.0047,0.0012,0.0089,0.0098,0.0122,0.0145,0.0147,0.0167,0.0166,0.0073,0.0011,0,0,0,-0.0048,-0.005,-0.0047,-0.0034,-0.0014,0.0046,0.0057,0.0092,0.0102,0.0143,0.0147,0.0167,0.0167,0.0076,0.0017,0.0013,0,0,0,-0.0065,-0.009,-0.0048,-0.0079,-0.0015,-0.0016,0.0057,0.0068,0.0093,0.0145,0.0167,0.0166,0.0077,0.0021,0.0016,-0.0041,0,0,0,-0.011,-0.0095,-0.0116,-0.0078,-0.0113,-0.0022,-0.0043,0.0025,0.0089,0.0147,0.0148,0.0071,0.0018,0.0014,-0.0095,0,0,0,0,-0.014,-0.0159,-0.0161,-0.017,-0.0146,-0.0129,-0.0053,-0.001,0.0045,0.0099,0.008,0.0049,0.005,0.0026,0.0162,0.0162,0.0162,0.0162,0.0162,-0.0216,-0.0216,-0.0266,-0.0263,-0.0259,-0.0199,-0.0173,-0.0097,-0.0021,-0.0011,-0.0023,-0.0088,-0.0118,-0.0003,-0.0004,-0.0004,-0.0004,-0.0005,-0.0005,-0.0309,-0.0342,-0.0352,-0.0401,-0.0376,-0.0376,-0.0288,-0.0227,-0.0163,-0.0099,-0.0092,-0.0068,-0.0014,-0.0012,-0.0011,-0.001,-0.0009,-0.0009,-0.0008,-0.0359,-0.0377,-0.0415,-0.0494,-0.0531,-0.049,-0.0509,-0.0403,-0.0272,-0.0268,-0.024,-0.0144,-0.0141,-0.0243,-0.0243,-0.0244,-0.0244,-0.0244,-0.0244,-0.0385,-0.0427,-0.0521,-0.0591,-0.0653,-0.0689,-0.0631,-0.0578,-0.0433,-0.0369,-0.0287,-0.0167,-0.0159,-0.0153,-0.0249,-0.0248,-0.0248,-0.0247,-0.0247,-0.0423,-0.0456,-0.0602,-0.0688,-0.0836,-0.0859,-0.0815,-0.0688,-0.0627,-0.0529,-0.0396,-0.0388,-0.0351,-0.0338,-0.0336,-0.0491,-0.0492,-0.0493,0,-0.0443,-0.0472,-0.0682,-0.0845,-0.0972,-0.0966,-0.0934,-0.0842,-0.0647,-0.0645,-0.0598,-0.0455,-0.0445,-0.0408,-0.0398,-0.0401,0,0,0,-0.0469,-0.054,-0.0689,-0.0874,-0.1035,-0.0976,-0.0924,-0.0881,-0.0679,-0.0625,-0.0521,-0.0514,-0.0404,-0.0264,-0.0185,-0.0176,-0.0161,0,0]}]]